News

Become a pilot with Flying Academy and get your first job in aviation with us.

Flying Academy is the first flight school in Czech Republic opening the registration for the new 0-CFI  course and giving new pilots the opportunity for their first aviation job.

 

continue reading >>

0-ATPL(A) free webinar

Flying Academy is hosting on 30th of April from 16:00 to 17:00 CET (UTC+1) a free live webinar where our Flight Training Consultants will present all details about our 0-ATPL(A) course.

During this one hour presentation we will discuss about:

- course description

- requirements to enroll

- course duration and cost

- living in the Czech Republic

- visa assistance for non EU trainees

- extra curricular activities.

We will also have a Q&A session at the end so that all question which you might have will be answered.

You can register for free HERE.

See you on the webinar and soon aboard our airplanes!

continue reading >>

Pass your ICAO Aviation English Exam with us!

Flying Academy invites you to the ICAO English Aviation Exam that will be held in:

Prague - Letnany, airport  14.05.2014 

Brno - Turany, intl airport  3.05.2014

 

Prior to the exam you can attend 4 hours long „refresh course“ of Aviation English, where we will prepare you for the exam.

Each pilot must have at least a minimum level of English knowledge - ICAO level 4.

continue reading >>

archive

Latest blog post

10 advantages for using the iPad in the cockpit

Flying Academy – the flight training organization managed by airline pilots – has started 2 months ago to equip its trainees with iPads. The Academy took the lead to revolutionize the cockpit and pilot training, realizing the vision of paperless flying and becoming the first Czech FTO to fly with iPad EFBs. The process will make learning to fly much easier, more efficient and accurate, useful for private pilots and important for future commercial pilots.

After having the iPad in trials, Flying Academy’s flight instructors have concluded that it’s extremely useful in the cockpit because it’s:

1. Fast – extremely short response time;

2. Reliable – as the iOS has very limited crashes;

3. Easy to use – intuitive menu and apps.

continue reading >>

archive

Latest weather

LKKV

LKKV 231500Z 02005KT 320V090 9999 BKN046 17/07 Q1019

LKPR

LKPR 231500Z VRB03KT CAVOK 20/06 Q1018 NOSIG

LKTB

LKTB 231500Z 05011KT 9999 -SHRA VCTS FEW030CB BKN046 19/11 Q1017 BECMG TSRA



Briefing tools

METAR & TAF Europe

METAR & TAF CZ

Weather Radar CZ

AIP Czech Republic